User: anonymous   Login
Location: Unspecified
(0.0000°N, 0.0000°E)
Time: 16:39:13
(UTC+00:00)
Language:

Azur - Orbit

View from above orbital plane
View from above orbital plane
View from above satellite
View from above satellite

Ground track
Ground track

The orbit data is extracted from the following two-line orbital elements,

1  4221U 69097A   18169.92130138 +.00001021 +00000-0 +55857-4 0  9990
2  4221 102.6999 204.6299 0629551 289.3207 064.0936 14.25011859301398
Epoch (UTC): 18 June 2018 22:06:40
Eccentricity: 0.0629551
inclination: 102.6999°
perigee height: 356 km
apogee height: 1261 km
right ascension of ascending node: 204.6299°
argument of perigee: 289.3207°
revolutions per day: 14.25011859
mean anomaly at epoch: 64.0936°
orbit number at epoch: 30139

The dashed part of the orbit path shows where the satellite is in the earth's shadow,  

DLR